EW7643 Weather Reports


Display with metric or nautical units.
time (UTC)temp
F
wind
direction
speed
MPH
gust
MPH
rain 1hr
in
rain 24hr
in
rain mn
in
humidity
%
barometer
mb
20260507061530 72 269 0.0 0.0 0.00 0.00 0.00 81 1012.8
20260507060024 72 252 0.0 0.0 0.00 0.00 0.00 81 1012.3
20260507054510 73 13 0.0 0.0 0.00 0.00 0.00 81 1012.3
20260507053012 73 259 0.0 6.0 0.00 0.00 0.00 81 1012.4
20260507051518 73 290 0.0 0.0 0.00 0.00 0.00 81 1012.3
20260507050021 74 352 0.0 0.0 0.00 0.00 0.00 81 1012.5
20260507044527 74 21 0.0 3.0 0.00 0.00 0.00 81 1012.4
20260507043012 75 15 0.0 5.0 0.00 0.00 0.00 80 1012.6
20260507041515 75 232 2.0 5.0 0.00 0.00 0.00 80 1012.4
20260507040020 77 284 0.0 0.0 0.00 0.00 0.00 71 1012.0
20260507034532 77 117 0.0 0.0 0.00 0.00 0.00 70 1011.7
20260507033026 77 117 0.0 0.0 0.00 0.00 0.00 70 1011.6
20260507031508 77 117 0.0 0.0 0.00 0.00 0.00 71 1011.3
20260507030014 77 117 0.0 0.0 0.00 0.00 0.00 71 1011.0
20260507024517 77 117 0.0 0.0 0.00 0.00 0.00 72 1010.7
20260507023024 77 117 0.0 0.0 0.00 0.00 0.00 73 1010.7
20260507021526 78 117 0.0 0.0 0.00 0.00 0.00 74 1010.5
20260507020010 78 117 0.0 0.0 0.00 0.00 0.00 75 1010.3
20260507014520 78 117 0.0 0.0 0.00 0.00 0.00 77 1009.8
20260507013020 79 141 0.0 0.0 0.00 0.00 0.00 78 1009.9
20260507011527 79 113 0.0 0.0 0.00 0.00 0.00 79 1009.5
20260507010032 79 115 0.0 2.0 0.00 0.00 0.00 79 1009.3
20260507004516 80 140 0.0 0.0 0.00 0.00 0.00 80 1009.4
20260507003018 80 245 0.0 0.0 0.00 0.00 0.00 80 1009.1
20260507001529 80 119 0.0 0.0 0.00 0.00 0.00 80 1008.9
20260507000029 81 108 0.0 0.0 0.00 0.00 0.00 80 1009.0
20260506234544 81 243 0.0 0.0 0.00 0.00 0.00 80 1008.9
20260506233015 82 112 0.0 0.0 0.00 0.00 0.00 80 1008.9
20260506231521 82 108 0.0 0.0 0.00 0.00 0.00 80 1008.9
20260506230024 82 113 0.0 0.0 0.00 0.00 0.00 79 1008.7
20260506224530 82 129 0.0 0.0 0.00 0.00 0.00 79 1008.4
20260506223026 83 122 0.0 0.0 0.00 0.00 0.00 79 1008.6
20260506221516 83 125 0.0 6.0 0.00 0.00 0.00 79 1008.7
20260506220033 83 120 0.0 3.0 0.00 0.00 0.00 79 1008.7
20260506214527 85 126 0.0 4.0 0.00 0.00 0.00 76 1008.6
20260506213026 86 84 0.0 3.0 0.00 0.00 0.00 75 1008.7
20260506211526 86 115 0.0 0.0 0.00 0.00 0.00 75 1008.7
20260506210018 85 115 0.0 0.0 0.00 0.00 0.00 76 1008.6
20260506204524 85 113 0.0 4.0 0.00 0.00 0.00 76 1008.8
20260506203026 84 14 0.0 1.0 0.00 0.00 0.00 77 1009.0
20260506201528 83 123 0.0 0.0 0.00 0.00 0.00 79 1009.2
20260506200029 83 114 0.0 4.0 0.00 0.00 0.00 79 1009.4
20260506194531 83 111 0.0 0.0 0.00 0.00 0.00 79 1009.4
20260506193005 83 112 0.0 0.0 0.00 0.00 0.00 78 1009.5
20260506191507 84 105 0.0 0.0 0.00 0.00 0.00 78 1009.6
20260506190014 84 114 0.0 0.0 0.00 0.00 0.00 78 1009.9
20260506184524 83 113 0.0 0.0 0.00 0.00 0.00 79 1010.2
20260506183023 83 117 0.0 0.0 0.00 0.00 0.00 79 1010.2
20260506181506 83 117 0.0 0.0 0.00 0.00 0.00 78 1010.4
20260506180010 83 94 0.0 0.0 0.00 0.00 0.00 79 1010.7
20260506174513 83 211 0.0 0.0 0.00 0.00 0.00 79 1010.7
20260506173022 83 115 0.0 0.0 0.00 0.00 0.00 79 1010.9
20260506171526 82 117 0.0 0.0 0.00 0.00 0.00 80 1011.0
20260506170008 81 105 0.0 0.0 0.00 0.00 0.00 79 1011.1
20260506164515 80 124 0.0 0.0 0.00 0.00 0.00 78 1011.1
20260506163020 79 124 0.0 0.0 0.00 0.00 0.00 77 1011.0
20260506161522 79 120 0.0 0.0 0.00 0.00 0.00 76 1010.9
20260506160036 79 105 0.0 0.0 0.00 0.00 0.00 77 1010.9
20260506154516 79 117 0.0 0.0 0.00 0.00 0.00 75 1010.7
20260506153014 78 106 0.0 0.0 0.00 0.00 0.00 74 1010.4
20260506151521 78 109 0.0 0.0 0.00 0.00 0.00 74 1010.3
20260506150026 78 79 0.0 0.0 0.00 0.00 0.00 73 1010.1
20260506144527 78 122 0.0 0.0 0.00 0.00 0.00 72 1009.7
20260506143013 78 127 0.0 0.0 0.00 0.00 0.00 72 1009.8
20260506141515 78 115 0.0 0.0 0.00 0.00 0.00 72 1010.1
20260506140018 78 120 0.0 0.0 0.00 0.00 0.00 69 1010.1
20260506134525 78 120 0.0 0.0 0.00 0.00 0.00 66 1010.0
20260506133027 77 119 0.0 0.0 0.00 0.00 0.00 66 1010.1
20260506131529 76 120 0.0 0.0 0.00 0.00 0.00 65 1010.1
20260506130035 76 120 0.0 0.0 0.00 0.00 0.00 65 1010.2
20260506124532 0 0.0 0.0 0.00 0.01 0.00 1010.0
20260506123031 0 0.0 0.0 0.00 0.01 0.00 1009.9
20260506121530 0 0.0 0.0 0.00 0.01 0.00 1009.8
20260506120028 0 0.0 0.0 0.00 0.01 0.00 1009.6
20260506114530 0 0.0 0.0 0.00 0.01 0.00 1009.4
20260506113030 0 0.0 0.0 0.00 0.01 0.00 1009.2
20260506111528 0 0.0 0.0 0.00 0.01 0.00 1009.1
20260506110028 0 0.0 0.0 0.00 0.01 0.00 1009.1
20260506104532 0 0.0 0.0 0.00 0.01 0.00 1009.1
20260506103038 0 0.0 0.0 0.00 0.01 0.00 1009.1
20260506101531 0 0.0 0.0 0.00 0.01 0.00 1009.1
20260506100036 0 0.0 0.0 0.00 0.01 0.00 1008.9
20260506094540 0 0.0 0.0 0.00 0.01 0.00 1008.8
20260506093034 75 0.0 0.0 0.00 0.01 0.00 68 1008.9
20260506091516 75 55 0.0 0.0 0.00 0.01 0.00 69 1008.9
20260506090023 75 55 0.0 0.0 0.00 0.01 0.00 69 1009.0
20260506084525 75 55 0.0 0.0 0.00 0.01 0.00 69 1009.2
20260506083011 75 108 0.0 0.0 0.00 0.01 0.00 70 1009.2
20260506081512 75 105 0.0 0.0 0.00 0.01 0.00 70 1009.2
20260506073025 76 115 0.0 0.0 0.00 0.01 0.00 72 1009.7
20260506071511 76 117 0.0 0.0 0.00 0.01 0.00 72 1009.8